TimeEDT,TemperatureF,Dew PointF,Humidity,Sea Level PressureIn,VisibilityMPH,Wind Direction,Wind SpeedMPH,Gust SpeedMPH,PrecipitationIn,Events,Conditions,WindDirDegrees,DateUTC
12:15 AM,32.9,30.2,90,29.92,10.0,WSW,4.6,-,N/A,,Overcast,250,2013-04-24 04:15:00
12:35 AM,32.9,30.2,90,29.92,10.0,WNW,9.2,-,N/A,,Overcast,290,2013-04-24 04:35:00
12:55 AM,32.9,29.8,88,29.91,10.0,West,3.5,-,N/A,,Overcast,270,2013-04-24 04:55:00
1:15 AM,32.9,30.2,90,29.91,10.0,West,3.5,-,N/A,,Overcast,270,2013-04-24 05:15:00
1:35 AM,32.9,30.2,90,29.91,10.0,West,4.6,-,N/A,,Overcast,280,2013-04-24 05:35:00
1:55 AM,32.9,30.0,89,29.91,10.0,West,6.9,-,N/A,,Overcast,280,2013-04-24 05:55:00
2:16 AM,32.9,30.2,90,29.90,10.0,West,4.6,-,N/A,,Mostly Cloudy,280,2013-04-24 06:16:00
2:35 AM,32.9,29.3,87,29.89,10.0,WNW,3.5,-,N/A,,Scattered Clouds,290,2013-04-24 06:35:00
2:55 AM,32.9,29.3,87,29.89,10.0,WNW,3.5,-,N/A,,Scattered Clouds,300,2013-04-24 06:55:00
3:15 AM,32.9,28.9,85,29.89,10.0,WNW,3.5,-,N/A,,Mostly Cloudy,300,2013-04-24 07:15:00
3:35 AM,32.9,28.4,84,29.89,10.0,Calm,Calm,-,N/A,,Mostly Cloudy,0,2013-04-24 07:35:00
3:55 AM,32.9,28.4,84,29.90,10.0,WNW,5.8,-,N/A,,Mostly Cloudy,290,2013-04-24 07:55:00
4:15 AM,32.9,28.8,85,29.90,10.0,WNW,5.8,-,N/A,,Scattered Clouds,290,2013-04-24 08:15:00
4:35 AM,32.9,28.4,84,29.89,10.0,WNW,3.5,-,N/A,,Scattered Clouds,290,2013-04-24 08:35:00
4:55 AM,32.9,28.4,84,29.90,10.0,WSW,3.5,-,N/A,,Mostly Cloudy,250,2013-04-24 08:55:00
5:15 AM,32.9,28.4,84,29.89,10.0,WNW,3.5,-,N/A,,Scattered Clouds,290,2013-04-24 09:15:00
5:35 AM,32.9,28.8,85,29.91,10.0,Calm,Calm,-,N/A,,Mostly Cloudy,0,2013-04-24 09:35:00
5:55 AM,32.9,28.4,84,29.89,10.0,Calm,Calm,-,N/A,,Overcast,0,2013-04-24 09:55:00
6:15 AM,32.9,28.4,84,29.91,10.0,NW,4.6,-,N/A,,Overcast,320,2013-04-24 10:15:00
6:36 AM,32.9,28.2,83,29.91,10.0,NW,4.6,-,N/A,,Overcast,310,2013-04-24 10:36:00
6:55 AM,32.9,28.0,82,29.90,10.0,WNW,5.8,-,N/A,,Overcast,300,2013-04-24 10:55:00
7:15 AM,32.9,28.0,82,29.91,10.0,NW,4.6,-,N/A,,Overcast,320,2013-04-24 11:15:00
7:36 AM,32.9,27.9,82,29.92,10.0,Calm,Calm,-,N/A,,Overcast,0,2013-04-24 11:36:00
7:55 AM,32.9,27.7,81,29.91,10.0,NW,3.5,-,N/A,,Overcast,320,2013-04-24 11:55:00
8:15 AM,32.9,27.5,81,29.92,10.0,West,3.5,-,N/A,,Overcast,280,2013-04-24 12:15:00
8:35 AM,32.9,27.0,79,29.92,10.0,North,4.6,-,N/A,,Overcast,10,2013-04-24 12:35:00
8:55 AM,32.9,26.8,78,29.92,10.0,NW,5.8,-,N/A,,Overcast,310,2013-04-24 12:55:00
9:15 AM,32.9,26.6,78,29.93,10.0,NW,6.9,-,N/A,,Overcast,320,2013-04-24 13:15:00
9:35 AM,32.9,25.9,75,29.92,10.0,NNW,9.2,-,N/A,,Overcast,340,2013-04-24 13:35:00
9:55 AM,34.7,27.5,75,29.92,10.0,NW,8.1,-,N/A,,Overcast,320,2013-04-24 13:55:00
10:15 AM,34.9,27.9,76,29.92,10.0,WNW,6.9,-,N/A,,Overcast,290,2013-04-24 14:15:00
10:35 AM,35.2,27.7,74,29.91,10.0,NNW,6.9,-,N/A,,Overcast,330,2013-04-24 14:35:00
10:55 AM,35.2,27.1,72,29.92,10.0,WNW,6.9,-,N/A,,Overcast,300,2013-04-24 14:55:00
11:15 AM,35.2,26.8,71,29.91,10.0,NW,10.4,-,N/A,,Overcast,320,2013-04-24 15:15:00
11:35 AM,35.4,26.2,69,29.90,10.0,NW,6.9,-,N/A,,Overcast,320,2013-04-24 15:35:00
11:55 AM,37.0,27.5,68,29.90,10.0,NW,5.8,-,N/A,,Mostly Cloudy,320,2013-04-24 15:55:00
12:15 PM,37.6,27.3,66,29.91,10.0,North,3.5,-,N/A,,Mostly Cloudy,360,2013-04-24 16:15:00
12:35 PM,37.6,27.3,66,29.91,10.0,NNE,5.8,-,N/A,,Overcast,20,2013-04-24 16:35:00
12:55 PM,37.6,27.1,66,29.91,10.0,North,6.9,-,N/A,,Mostly Cloudy,350,2013-04-24 16:55:00
1:15 PM,38.5,27.9,66,29.90,10.0,SW,9.2,-,N/A,,Mostly Cloudy,230,2013-04-24 17:15:00
1:35 PM,38.5,28.6,68,29.89,10.0,West,8.1,-,N/A,,Scattered Clouds,270,2013-04-24 17:35:00
1:55 PM,38.3,29.3,70,29.88,10.0,West,5.8,17.3,N/A,,Mostly Cloudy,260,2013-04-24 17:55:00
2:15 PM,37.8,29.3,72,29.88,10.0,WNW,6.9,18.4,N/A,,Mostly Cloudy,300,2013-04-24 18:15:00
2:35 PM,41.4,25.9,54,29.89,10.0,West,12.7,18.4,N/A,,Scattered Clouds,280,2013-04-24 18:35:00
2:55 PM,37.6,30.6,76,29.89,10.0,WSW,13.8,24.2,N/A,,Scattered Clouds,240,2013-04-24 18:55:00
3:16 PM,37.6,30.6,76,29.89,10.0,WSW,13.8,23.0,N/A,,Clear,240,2013-04-24 19:16:00
3:35 PM,37.6,29.1,72,29.90,10.0,WSW,13.8,19.6,N/A,,Clear,240,2013-04-24 19:35:00
3:55 PM,37.8,29.7,73,29.90,10.0,WSW,12.7,18.4,N/A,,Clear,250,2013-04-24 19:55:00
4:15 PM,37.6,30.2,75,29.91,10.0,WSW,13.8,18.4,N/A,,Clear,240,2013-04-24 20:15:00
4:35 PM,37.6,30.4,75,29.91,10.0,WSW,11.5,18.4,N/A,,Clear,250,2013-04-24 20:35:00
4:55 PM,38.3,29.5,71,29.91,10.0,WSW,12.7,17.3,N/A,,Clear,240,2013-04-24 20:55:00
5:15 PM,38.7,29.3,69,29.91,10.0,WSW,10.4,16.1,N/A,,Clear,250,2013-04-24 21:15:00
5:35 PM,38.7,28.9,68,29.92,10.0,West,8.1,18.4,N/A,,Clear,260,2013-04-24 21:35:00
5:53 PM,38.5,27.0,63,29.93,10.0,WSW,8.1,-,N/A,,Clear,250,2013-04-24 21:53:00
6:15 PM,38.8,25.7,59,29.93,10.0,West,9.2,-,N/A,,Clear,260,2013-04-24 22:15:00
6:35 PM,38.8,23.9,55,29.94,10.0,West,9.2,-,N/A,,Clear,260,2013-04-24 22:35:00
6:55 PM,38.8,23.9,55,29.94,10.0,West,6.9,-,N/A,,Clear,260,2013-04-24 22:55:00
7:15 PM,38.8,23.2,53,29.94,10.0,West,8.1,-,N/A,,Clear,270,2013-04-24 23:15:00
7:35 PM,38.8,22.5,52,29.94,10.0,WSW,6.9,-,N/A,,Clear,250,2013-04-24 23:35:00
7:55 PM,38.1,21.9,52,29.94,10.0,West,5.8,-,N/A,,Clear,260,2013-04-24 23:55:00
8:15 PM,37.6,22.5,54,29.94,10.0,West,3.5,-,N/A,,Clear,260,2013-04-25 00:15:00
8:35 PM,36.9,23.0,57,29.95,10.0,West,5.8,-,N/A,,Clear,280,2013-04-25 00:35:00
8:55 PM,35.4,22.6,60,29.96,10.0,Calm,Calm,-,N/A,,Clear,0,2013-04-25 00:55:00
9:15 PM,35.2,24.3,64,29.97,10.0,Calm,Calm,-,N/A,,Clear,0,2013-04-25 01:15:00
9:35 PM,32.9,23.0,67,29.97,10.0,Calm,Calm,-,N/A,,Clear,0,2013-04-25 01:35:00
9:56 PM,32.9,23.9,69,29.98,10.0,Calm,Calm,-,N/A,,Clear,0,2013-04-25 01:56:00
10:55 PM,30.4,23.4,75,29.99,10.0,NE,3.5,-,N/A,,Clear,50,2013-04-25 02:55:00
11:15 PM,30.6,23.7,76,29.99,10.0,NE,3.5,-,N/A,,Clear,50,2013-04-25 03:15:00
11:35 PM,30.0,23.5,77,29.99,10.0,NE,3.5,-,N/A,,Clear,50,2013-04-25 03:35:00
11:55 PM,29.7,23.9,79,29.99,10.0,ENE,3.5,-,N/A,,Clear,70,2013-04-25 03:55:00